Weather History for Pecos, TX

Change the Weather History Date:

Tuesday, May 21, 2013

  Actual Average Record
Temperature  
Mean Temperature 75 °F -  
Max Temperature 89 °F 93 °F 105 °F (1953)
Min Temperature 63 °F 57 °F 43 °F (1904)
Cooling Degree Days 10    
Growing Degree Days 25 (Base 50)    
Moisture  
Dew Point 30 °F    
Average Humidity 22    
Maximum Humidity 32    
Minimum Humidity 15    
Precipitation  
Precipitation 0.00 in - - ()
Sea Level Pressure  
Sea Level Pressure 29.82 in    
Wind  
Wind Speed 12 mph (WNW)    
Max Wind Speed 28 mph    
Max Gust Speed 33 mph    
Visibility 10 miles    
Events      
Averages and records for this station are not official NWS values.
T = Trace of Precipitation, MM = Missing Value Source: NWS Daily Summary

Daily Weather History Graph

Daily Weather History Graph

Search for Another Location

Airport:

Trip Planner

Search our weather history database for the weather conditions in past years. The results will help you decide how hot, cold, wet, or windy it might be!

Date:

Astronomy

May. 21, 2013 Rise Set
Actual Time 6:54 AM CDT 8:47 PM CDT
Civil Twilight 6:27 AM CDT 9:14 PM CDT
Nautical Twilight 5:54 AM CDT 9:47 PM CDT
Astronomical Twilight 5:20 AM CDT 10:21 PM CDT
Moon 5:15 PM CDT (5/21) 4:09 AM CDT (5/21)
Length of Visible Light 14h 47m
Length of Day
13h 53m
Waxing Gibbous, 84% of the Moon is Illuminated
May 21
Waxing Gibbous
May 24
Full
May 31
Last Quarter
Jun 8
New
Jun 16
First Quarter

Hourly Weather History & Observations

Time (CDT) Temp. Dew Point Humidity Pressure Visibility Wind Dir Wind Speed Gust Speed Precip Events Conditions
12:15 AM 67.6 °F 27.3 °F 22% 29.76 in 10.0 mi SSW 8.1 mph - N/A   Clear
12:55 AM 63.9 °F 28.0 °F 26% 29.76 in 10.0 mi SW 6.9 mph - N/A   Clear
1:15 AM 63.1 °F 26.6 °F 25% 29.76 in 10.0 mi WSW 5.8 mph - N/A   Clear
1:55 AM 64.2 °F 22.6 °F 20% 29.75 in 10.0 mi SW 6.9 mph - N/A   Clear
2:15 AM 63.3 °F 22.6 °F 21% 29.76 in 10.0 mi West 11.5 mph - N/A   Clear
2:35 AM 67.8 °F 21.2 °F 17% 29.75 in 10.0 mi West 10.4 mph - N/A   Clear
2:55 AM 69.4 °F 21.9 °F 17% 29.74 in 10.0 mi West 11.5 mph - N/A   Clear
3:15 AM 70.0 °F 21.9 °F 16% 29.74 in 10.0 mi West 12.7 mph - N/A   Clear
3:35 AM 69.3 °F 21.2 °F 16% 29.75 in 10.0 mi West 12.7 mph - N/A   Clear
3:55 AM 68.9 °F 21.7 °F 17% 29.76 in 10.0 mi West 15.0 mph - N/A   Clear
4:15 AM 73.0 °F 22.8 °F 15% 29.77 in 10.0 mi WNW 23.0 mph 31.1 mph N/A   Clear
4:35 AM 72.7 °F 25.0 °F 17% 29.77 in 7.0 mi NW 24.2 mph 28.8 mph N/A   Clear
4:55 AM 72.3 °F 27.7 °F 19% 29.78 in 10.0 mi NW 27.6 mph 33.4 mph N/A   Clear
5:15 AM 71.6 °F 30.0 °F 21% 29.79 in 10.0 mi WNW 19.6 mph 32.2 mph N/A   Clear
5:35 AM 70.5 °F 30.2 °F 22% 29.80 in 10.0 mi NW 21.9 mph 31.1 mph N/A   Clear
5:55 AM 70.3 °F 30.0 °F 22% 29.81 in 10.0 mi NW 19.6 mph 26.5 mph N/A   Clear
6:15 AM 70.2 °F 30.0 °F 23% 29.82 in 10.0 mi NW 16.1 mph 21.9 mph N/A   Clear
6:35 AM 69.8 °F 30.2 °F 23% 29.83 in 10.0 mi NW 20.7 mph - N/A   Clear
10:15 AM 74.3 °F 42.8 °F 32% 29.95 in 10.0 mi NW 11.5 mph - N/A   Clear
10:55 AM 76.6 °F 42.8 °F 30% 29.95 in 10.0 mi NW 10.4 mph 16.1 mph N/A   Clear
11:15 AM 77.7 °F 42.8 °F 29% 29.95 in 10.0 mi NNW 13.8 mph 17.3 mph N/A   Clear
12:35 PM 80.8 °F 40.8 °F 24% 29.95 in 10.0 mi NW 15.0 mph 19.6 mph N/A   Clear
3:15 PM 87.1 °F 34.7 °F 15% 29.90 in 10.0 mi NW 9.2 mph 24.2 mph N/A   Clear
3:55 PM 87.3 °F 34.0 °F 15% 29.88 in 10.0 mi West 4.6 mph 20.7 mph N/A   Clear
10:15 PM 70.9 °F 34.7 °F 26% 29.86 in 10.0 mi East 5.8 mph - N/A   Clear
10:35 PM 69.4 °F 34.0 °F 27% 29.86 in 10.0 mi ESE 4.6 mph - N/A   Clear
11:15 PM 66.7 °F 34.3 °F 30% 29.88 in 10.0 mi ESE 6.9 mph - N/A   Clear